SCP
0 0 -0 -0 0 0 0 0 0 0 0 0 0 0 0 0 0 0 0 0 0 0 0 0 0 0 -0 -0 -0 -0 -0 -0 0
0 1 0 0 -0 -0 0 0 0 0 0 0 0 0 0 0 0 0 0 0 0 0 0 0 0 -0 -0 -0 0 -0 -0 0 -0
0 0 0 0 0 0 -0 -0 0 0 0 0 0 0 0 0 0 0 0 0 0 0 0 0 0 0 0 -0 -0 -0 -0 0 0
0 0 1 0 0 0 0 0 0 0 0 0 0 0 0 0 0 0 0 0 0 0 0 0 0 0 0 -0 -0 -0 -0 0 0
0 0 0 0 0 0 0 0 0 0 0 0 0 0 0 0 0 0 0 0 0 0 0 0 0 0 0 -0 -0 -0 -0 -0 -0
0 0 0 0 0 0 0 1 1 0 0 0 0 0 0 0 0 0 0 0 0 0 0 0 0 0 0 0 -0 -0 -0 -0 -0
0 0 0 0 0 0 0 0 0 1 0 0 0 0 0 0 0 0 0 0 0 0 0 0 0 0 0 0 0 0 -0 -0 -0
0 0 0 0 0 0 0 0 0 0 2 1 1 1 0 0 0 0 0 0 0 0 1 0 0 0 0 0 0 0 0 -0 -0
0 0 0 0 0 0 0 0 0 0 0 2 1 1 1 1 1 1 0 0 0 0 0 1 1 0 0 0 0 0 0 0 0
0 0 0 0 0 0 0 0 0 0 0 0 2 2 1 1 1 1 1 1 1 1 1 1 1 1 1 1 0 0 0 0 0
0 0 0 0 0 0 0 0 0 0 0 0 0 0 2 1 1 1 2 1 1 1 1 1 1 1 1 1 1 0 0 0 0
0 0 0 0 0 0 0 0 0 0 0 0 0 0 0 0 1 2 1 1 1 1 1 1 1 1 1 1 1 0 0 0 0
0 0 0 0 0 0 0 0 0 0 0 0 0 0 0 0 0 0 1 2 2 1 1 1 1 1 1 1 1 1 0 0 0
0 0 0 0 0 0 0 0 0 0 0 0 0 0 0 0 0 0 0 1 0 1 1 2 1 1 1 1 1 1 0 0 1
0 0 0 0 0 0 0 0 0 0 0 0 0 0 0 0 0 0 0 1 1 1 1 1 1 1 1 1 1 0 0 0 0
0 0 0 0 0 0 0 0 0 0 0 0 0 0 0 0 0 0 0 0 0 1 1 2 2 1 1 1 1 1 0 0 0
0 0 0 0 0 0 0 0 0 0 0 0 0 0 0 0 0 0 0 0 0 0 0 0 0 3 1 2 2 2 2 2 0
0 0 0 0 0 0 0 0 0 0 0 0 0 0 0 0 0 0 0 0 0 0 0 0 0 0 2 3 2 1 1 1 2
0 0 0 0 0 0 0 0 0 0 0 0 0 0 0 0 0 0 0 0 0 0 -0 0 0 0 0 0 0 0 0 0 0
0 0 0 0 0 0 0 0 0 0 0 0 0 0 0 0 0 0 0 0 0 0 0 -0 0 0 0 0 0 0 0 0 0
Wind_Speed_500mb
12 37 38 41 43 45 49 48 47 48 49 53 57 58 54 50 46 38 28 26 24 20 20 19 19 18 18 17 17 18 20 18 18
27 10 24 35 39 42 44 47 51 51 52 58 57 59 58 56 52 46 34 31 29 28 23 18 22 19 21 19 16 17 20 18 24
32 27 14 5 26 41 46 47 47 49 50 55 59 58 58 56 56 52 45 44 35 34 31 30 20 25 23 22 21 19 16 20 22
39 36 29 24 11 26 37 43 44 47 49 50 51 52 56 58 55 54 51 48 44 38 38 35 33 32 30 26 22 21 23 23 22
40 44 41 40 36 25 8 22 38 42 44 44 48 48 49 55 56 55 53 51 50 42 39 41 42 36 38 33 29 28 27 25 22
37 43 48 48 46 40 28 17 4 28 36 41 40 42 45 46 48 51 56 56 55 52 45 43 41 40 40 38 37 34 34 32 28
34 38 46 49 51 49 41 24 11 10 25 32 36 39 41 45 48 52 53 51 57 58 56 49 46 47 43 42 41 38 38 38 37
30 38 43 46 47 49 50 42 18 10 7 24 32 36 39 41 41 42 47 51 52 58 61 60 51 50 52 48 44 41 41 43 43
28 33 36 39 40 41 44 49 46 15 2 3 22 30 33 34 37 38 42 43 47 52 61 64 63 60 56 58 53 50 53 49 44
25 29 32 35 36 38 39 40 43 42 18 7 8 21 25 27 32 36 40 41 44 47 53 58 65 69 67 65 65 63 64 63 56
22 28 30 31 33 36 36 34 35 40 36 19 10 10 14 21 26 32 34 37 41 44 46 51 59 64 70 72 72 68 69 72 70
21 24 28 30 31 34 35 35 37 37 39 33 23 9 22 19 27 31 36 41 41 43 43 45 51 56 63 73 78 76 73 71 74
28 27 27 32 34 33 31 33 36 37 33 34 33 24 14 9 16 24 31 34 39 42 45 46 45 50 56 62 75 77 78 76 74
32 34 34 34 34 34 33 33 34 37 37 31 35 38 26 9 13 18 16 19 32 41 46 47 50 54 58 56 64 76 80 78 78
32 34 37 38 39 36 35 35 36 35 38 40 42 40 35 31 22 15 19 22 19 22 38 49 56 60 61 66 70 71 81 82 83
32 33 36 37 39 42 40 36 36 43 36 40 47 46 39 36 36 35 21 23 20 22 21 26 45 53 57 64 59 59 65 80 83
37 37 38 37 39 41 46 42 39 42 48 33 46 50 49 43 38 36 38 27 25 23 24 21 24 40 51 51 52 51 54 55 65
36 36 37 33 33 38 47 47 46 42 44 42 39 44 52 50 48 42 41 42 37 34 32 30 32 34 33 35 49 54 47 53 56
32 36 35 34 39 42 48 44 43 41 41 41 40 41 38 40 39 45 48 49 54 43 50 40 39 39 55 42 47 55 65 64 61
33 32 36 40 42 44 42 39 34 32 34 39 38 40 40 41 41 40 40 42 44 52 49 52 42 40 49 61 48 61 66 80 78
Wind_Direction_500mb
173 195 203 205 207 209 210 211 212 212 215 227 229 231 237 239 239 235 231 229 213 232 210 217 219 211 203 196 194 194 199 201 198
70 84 200 206 214 217 217 217 217 217 216 230 231 232 235 239 242 238 230 225 228 221 228 220 220 207 203 198 196 201 203 194 204
58 67 73 227 231 225 224 223 223 224 225 229 235 234 237 238 242 242 243 239 231 226 223 230 217 215 211 206 207 209 203 222 214
48 37 43 37 353 237 225 226 225 226 227 227 228 225 233 238 239 239 240 245 242 238 230 228 225 224 217 222 223 222 221 208 215
47 41 35 36 40 50 195 231 230 230 228 229 229 227 225 231 235 237 238 243 247 241 235 230 231 232 231 231 227 228 229 218 217
48 41 39 38 37 42 39 24 299 233 228 228 228 227 226 227 228 231 238 244 247 248 244 238 231 231 232 232 230 230 232 226 223
46 41 35 35 34 33 32 35 48 335 237 231 227 225 229 228 229 230 235 238 241 246 250 247 244 235 232 234 235 235 231 232 232
44 37 33 28 26 25 26 31 38 78 291 243 234 229 227 231 234 234 233 236 236 239 241 247 245 244 241 234 233 237 235 231 234
37 32 25 23 22 18 21 14 21 21 47 252 246 240 240 237 233 235 234 235 238 238 241 242 244 243 243 243 235 236 237 236 235
31 21 15 10 11 11 10 12 7 15 10 324 253 252 249 246 243 238 238 238 236 235 236 237 240 242 244 244 247 237 236 242 240
20 6 359 356 355 356 358 2 2 0 16 16 297 256 253 249 248 245 243 241 237 240 237 236 237 240 242 244 246 246 245 243 245
359 346 341 337 336 336 342 344 348 352 360 7 19 319 264 266 263 260 257 253 250 242 241 238 237 239 240 242 245 245 246 245 244
330 326 326 324 323 325 325 332 332 335 344 351 355 6 29 349 290 270 265 256 257 257 250 249 244 242 242 241 243 246 245 245 245
316 313 314 312 316 310 313 315 316 318 321 327 328 327 338 15 6 351 328 291 268 254 251 250 251 253 245 242 245 244 245 243 243
324 317 312 309 306 303 304 305 303 301 304 306 307 313 311 310 307 298 308 314 302 298 262 255 255 251 252 253 247 247 245 245 243
328 324 316 309 302 298 300 300 296 290 288 294 295 298 303 297 297 300 301 299 299 304 300 292 265 261 257 255 253 247 254 250 247
326 325 322 313 303 296 295 294 290 287 283 283 287 286 291 296 292 286 294 292 288 286 292 296 296 270 259 262 265 255 249 255 258
320 324 331 321 309 301 298 293 286 282 282 276 272 280 280 285 291 288 280 285 284 277 266 273 287 288 280 274 269 268 260 252 247
316 322 314 323 317 312 311 305 285 277 276 273 264 267 274 285 282 289 289 286 280 278 277 262 270 282 288 292 288 282 258 250 255
309 309 317 316 311 311 308 299 286 274 275 262 260 264 267 271 278 283 285 290 287 288 283 269 264 278 287 276 296 287 289 257 252
Wind_Speed_850mb
12 37 38 41 43 45 49 48 47 48 49 53 57 58 54 50 46 38 28 26 24 20 20 19 19 18 18 17 17 18 20 18 18
27 10 24 35 39 42 44 47 51 51 52 58 57 59 58 56 52 46 34 31 29 28 23 18 22 19 21 19 16 17 20 18 24
32 27 14 5 26 41 46 47 47 49 50 55 59 58 58 56 56 52 45 44 35 34 31 30 20 25 23 22 21 19 16 20 22
39 36 29 24 11 26 37 43 44 47 49 50 51 52 56 58 55 54 51 48 44 38 38 35 33 32 30 26 22 21 23 23 22
40 44 41 40 36 25 8 22 38 42 44 44 48 48 49 55 56 55 53 51 50 42 39 41 42 36 38 33 29 28 27 25 22
37 43 48 48 46 40 28 17 4 28 36 41 40 42 45 46 48 51 56 56 55 52 45 43 41 40 40 38 37 34 34 32 28
34 38 46 49 51 49 41 24 11 10 25 32 36 39 41 45 48 52 53 51 57 58 56 49 46 47 43 42 41 38 38 38 37
30 38 43 46 47 49 50 42 18 10 7 24 32 36 39 41 41 42 47 51 52 58 61 60 51 50 52 48 44 41 41 43 43
28 33 36 39 40 41 44 49 46 15 2 3 22 30 33 34 37 38 42 43 47 52 61 64 63 60 56 58 53 50 53 49 44
25 29 32 35 36 38 39 40 43 42 18 7 8 21 25 27 32 36 40 41 44 47 53 58 65 69 67 65 65 63 64 63 56
22 28 30 31 33 36 36 34 35 40 36 19 10 10 14 21 26 32 34 37 41 44 46 51 59 64 70 72 72 68 69 72 70
21 24 28 30 31 34 35 35 37 37 39 33 23 9 22 19 27 31 36 41 41 43 43 45 51 56 63 73 78 76 73 71 74
28 27 27 32 34 33 31 33 36 37 33 34 33 24 14 9 16 24 31 34 39 42 45 46 45 50 56 62 75 77 78 76 74
32 34 34 34 34 34 33 33 34 37 37 31 35 38 26 9 13 18 16 19 32 41 46 47 50 54 58 56 64 76 80 78 78
32 34 37 38 39 36 35 35 36 35 38 40 42 40 35 31 22 15 19 22 19 22 38 49 56 60 61 66 70 71 81 82 83
32 33 36 37 39 42 40 36 36 43 36 40 47 46 39 36 36 35 21 23 20 22 21 26 45 53 57 64 59 59 65 80 83
37 37 38 37 39 41 46 42 39 42 48 33 46 50 49 43 38 36 38 27 25 23 24 21 24 40 51 51 52 51 54 55 65
36 36 37 33 33 38 47 47 46 42 44 42 39 44 52 50 48 42 41 42 37 34 32 30 32 34 33 35 49 54 47 53 56
32 36 35 34 39 42 48 44 43 41 41 41 40 41 38 40 39 45 48 49 54 43 50 40 39 39 55 42 47 55 65 64 61
33 32 36 40 42 44 42 39 34 32 34 39 38 40 40 41 41 40 40 42 44 52 49 52 42 40 49 61 48 61 66 80 78
Wind_Direction_850mb
173 195 203 205 207 209 210 211 212 212 215 227 229 231 237 239 239 235 231 229 213 232 210 217 219 211 203 196 194 194 199 201 198
70 84 200 206 214 217 217 217 217 217 216 230 231 232 235 239 242 238 230 225 228 221 228 220 220 207 203 198 196 201 203 194 204
58 67 73 227 231 225 224 223 223 224 225 229 235 234 237 238 242 242 243 239 231 226 223 230 217 215 211 206 207 209 203 222 214
48 37 43 37 353 237 225 226 225 226 227 227 228 225 233 238 239 239 240 245 242 238 230 228 225 224 217 222 223 222 221 208 215
47 41 35 36 40 50 195 231 230 230 228 229 229 227 225 231 235 237 238 243 247 241 235 230 231 232 231 231 227 228 229 218 217
48 41 39 38 37 42 39 24 299 233 228 228 228 227 226 227 228 231 238 244 247 248 244 238 231 231 232 232 230 230 232 226 223
46 41 35 35 34 33 32 35 48 335 237 231 227 225 229 228 229 230 235 238 241 246 250 247 244 235 232 234 235 235 231 232 232
44 37 33 28 26 25 26 31 38 78 291 243 234 229 227 231 234 234 233 236 236 239 241 247 245 244 241 234 233 237 235 231 234
37 32 25 23 22 18 21 14 21 21 47 252 246 240 240 237 233 235 234 235 238 238 241 242 244 243 243 243 235 236 237 236 235
31 21 15 10 11 11 10 12 7 15 10 324 253 252 249 246 243 238 238 238 236 235 236 237 240 242 244 244 247 237 236 242 240
20 6 359 356 355 356 358 2 2 0 16 16 297 256 253 249 248 245 243 241 237 240 237 236 237 240 242 244 246 246 245 243 245
359 346 341 337 336 336 342 344 348 352 360 7 19 319 264 266 263 260 257 253 250 242 241 238 237 239 240 242 245 245 246 245 244
330 326 326 324 323 325 325 332 332 335 344 351 355 6 29 349 290 270 265 256 257 257 250 249 244 242 242 241 243 246 245 245 245
316 313 314 312 316 310 313 315 316 318 321 327 328 327 338 15 6 351 328 291 268 254 251 250 251 253 245 242 245 244 245 243 243
324 317 312 309 306 303 304 305 303 301 304 306 307 313 311 310 307 298 308 314 302 298 262 255 255 251 252 253 247 247 245 245 243
328 324 316 309 302 298 300 300 296 290 288 294 295 298 303 297 297 300 301 299 299 304 300 292 265 261 257 255 253 247 254 250 247
326 325 322 313 303 296 295 294 290 287 283 283 287 286 291 296 292 286 294 292 288 286 292 296 296 270 259 262 265 255 249 255 258
320 324 331 321 309 301 298 293 286 282 282 276 272 280 280 285 291 288 280 285 284 277 266 273 287 288 280 274 269 268 260 252 247
316 322 314 323 317 312 311 305 285 277 276 273 264 267 274 285 282 289 289 286 280 278 277 262 270 282 288 292 288 282 258 250 255
309 309 317 316 311 311 308 299 286 274 275 262 260 264 267 271 278 283 285 290 287 288 283 269 264 278 287 276 296 287 289 257 252